Weather History for Sheridan, WY

Change the Weather History Date:

Wednesday, February 27, 2013

  Actual Average Record
Temperature  
Mean Temperature 24 °F 30 °F  
Max Temperature 36 °F 42 °F 70 °F (1992)
Min Temperature 11 °F 17 °F -19 °F (1947)
Degree Days  
Heating Degree Days 41 35  
Month to date heating degree days 1092 1038  
Since 1 July heating degree days 5287 5498  
Cooling Degree Days 0 0  
Month to date cooling degree days 0 0  
Year to date cooling degree days 0 0  
Moisture  
Dew Point 11 °F    
Average Humidity 65    
Maximum Humidity 88    
Minimum Humidity 41    
Precipitation  
Precipitation 0.00 in 0.02 in 0.48 in (1953)
Month to date precipitation 0.79 0.52  
Year to date precipitation 1.75 1.08  
Sea Level Pressure  
Sea Level Pressure 30.31 in    
Wind  
Wind Speed 3 mph (WSW)    
Max Wind Speed 13 mph    
Max Gust Speed 15 mph    
Visibility 10 miles    
Events      
T = Trace of Precipitation, MM = Missing Value Source: NWS Daily Summary

Daily Weather History Graph

Daily Weather History Graph

Search for Another Location

Airport:

Trip Planner

Search our weather history database for the weather conditions in past years. The results will help you decide how hot, cold, wet, or windy it might be!

Date:

Astronomy

Feb. 27, 2013 Rise Set
Actual Time 6:48 AM MST 5:53 PM MST
Civil Twilight 6:19 AM MST 6:22 PM MST
Nautical Twilight 5:45 AM MST 6:56 PM MST
Astronomical Twilight 5:11 AM MST 7:30 PM MST
Moon 8:26 PM MST (2/27) 7:18 AM MST (2/27)
Length of Visible Light 12h 03m
Length of Day
11h 04m
Waning Gibbous, 96% of the Moon is Illuminated
Feb 27
Waning Gibbous
Mar 4
Last Quarter
Mar 11
New
Mar 19
First Quarter
Mar 27
Full

Hourly Weather History & Observations

Time (MST) Temp. Windchill Dew Point Humidity Pressure Visibility Wind Dir Wind Speed Gust Speed Precip Events Conditions
12:53 AM 19.4 °F 8.6 °F 15.8 °F 86% 30.18 in 10.0 mi West 9.2 mph - N/A   Clear
1:53 AM 18.0 °F 9.8 °F 12.9 °F 81% 30.31 in 10.0 mi West 5.8 mph - N/A   Clear
2:53 AM 14.0 °F 6.5 °F 10.0 °F 84% 30.32 in 10.0 mi SSW 4.6 mph - N/A   Clear
3:53 AM 15.1 °F - 10.0 °F 80% 30.32 in 10.0 mi Calm Calm - N/A   Clear
4:53 AM 16.0 °F - 8.1 °F 71% 30.32 in 10.0 mi Calm Calm - N/A   Clear
5:53 AM 18.0 °F 6.1 °F 7.0 °F 62% 30.33 in 10.0 mi West 10.4 mph - N/A   Clear
6:53 AM 18.0 °F - 6.1 °F 60% 30.33 in 10.0 mi Calm Calm - N/A   Clear
7:53 AM 19.0 °F - 6.1 °F 57% 30.34 in 10.0 mi Calm Calm - N/A   Clear
8:53 AM 21.9 °F - 10.0 °F 60% 30.34 in 10.0 mi Calm Calm - N/A   Clear
9:53 AM 28.4 °F - 8.6 °F 43% 30.20 in 10.0 mi Calm Calm - N/A   Clear
10:53 AM 28.9 °F - 12.9 °F 51% 30.33 in 10.0 mi North - - N/A   Clear
11:53 AM 32.0 °F - 12.9 °F 45% 30.32 in 10.0 mi North - - N/A   Clear
12:53 PM 33.1 °F - 12.0 °F 42% 30.32 in 10.0 mi Calm Calm - N/A   Clear
1:53 PM 34.0 °F - 12.9 °F 42% 30.31 in 10.0 mi Calm Calm - N/A   Clear
2:53 PM 33.1 °F 26.9 °F 17.1 °F 52% 30.31 in 10.0 mi SSW 6.9 mph - N/A   Clear
3:53 PM 32.0 °F 28.7 °F 18.0 °F 56% 30.30 in 10.0 mi SSW 3.5 mph - N/A   Mostly Cloudy
4:53 PM 30.0 °F 26.5 °F 17.1 °F 59% 30.30 in 10.0 mi SW 3.5 mph - N/A   Scattered Clouds
5:53 PM 21.9 °F 15.7 °F 12.0 °F 66% 30.32 in 10.0 mi WSW 4.6 mph - N/A   Clear
6:53 PM 23.0 °F 15.8 °F 10.9 °F 60% 30.32 in 10.0 mi South 5.8 mph - N/A   Mostly Cloudy
7:53 PM 21.9 °F 15.7 °F 12.0 °F 66% 30.31 in 10.0 mi SSW 4.6 mph - N/A   Partly Cloudy
8:53 PM 15.1 °F - 7.0 °F 70% 30.33 in 10.0 mi Calm Calm - N/A   Clear
9:53 PM 21.9 °F - 10.9 °F 63% 30.30 in 10.0 mi Calm Calm - N/A   Overcast
10:53 PM 21.0 °F 13.4 °F 10.0 °F 63% 30.28 in 10.0 mi WNW 5.8 mph - N/A   Clear
11:53 PM 19.9 °F 14.9 °F 10.9 °F 68% 30.28 in 10.0 mi North 3.5 mph - N/A   Mostly Cloudy